Regional Weather Roundup
Issued by NWS Wilmington, NC

Home | Current Version | Previous Version | Text Only | Print | Product List | Glossary On
Versions: 1 2 3 4 5 6 7 8 9 10 11 12 13 14 15 16 17 18 19 20 21 22 23 24 25 26 27 28 29 30 31 32 33 34 35 36 37 38 39 40 41 42 43 44 45 46 47 48 49 50
000
ASUS42 KILM 312210
RWRILM
RWRILM
REGIONAL HOURLY WEATHER ROUNDUP
NATIONAL WEATHER SERVICE WILMINGTON NC
500 PM EST SAT JAN 31 2015

NOTE: "FAIR" INDICATES FEW OR NO CLOUDS BELOW 12,000 FEET WITH NO
SIGNIFICANT WEATHER AND/OR OBSTRUCTIONS TO VISIBILITY.

...............WFO WILMINGTON COUNTY WARNING AREA...............

......COASTAL NC AND SC COUNTIES......

CITY           SKY/WX    TMP DP  RH WIND       PRES   REMARKS
WILMINGTON     CLEAR     48  10  21 W8        30.32S
SOUTHPORT      CLEAR     44  23  44 S6        30.33F
N MYRTLE BEACH CLEAR     51   7  16 N3        30.32F
MYRTLE BEACH   CLEAR     46  21  36 S10       30.35F

......INLAND NC AND SC COUNTIES.......

CITY           SKY/WX    TMP DP  RH WIND       PRES   REMARKS
LUMBERTON      CLEAR     51   9  18 SW3       30.30F
ELIZABETHTOWN  CLEAR     50   5  16 W3        30.31S
WHITEVILLE     CLEAR     50   7  18 SW3       30.31F
FLORENCE       CLEAR     51  11  20 W7        30.32S
DARLINGTON     CLEAR     50  16  25 S8        30.33S

....................REST OF NORTH CAROLINA......................

.........EASTERN NC.........

CITY           SKY/WX    TMP DP  RH WIND       PRES   REMARKS
CAPE HATTERAS  CLEAR     38  14  37 NW6       30.30S WCI  33
JACKSONVILLE   CLEAR     45  10  24 W5        30.32S
MOREHEAD CITY  CLEAR     41  18  39 S7        30.32R
KENANSVILLE    CLEAR     46   7  20 W5        30.32S
NEW BERN       CLEAR     46  11  24 W7        30.32S
ELIZABETH CITY CLEAR     38   9  30 NW9       30.29S WCI  31

.........CENTRAL NC.........

CITY           SKY/WX    TMP DP  RH WIND       PRES   REMARKS
RALEIGH DURHAM PTCLDY    46   7  20 W3        30.29R
ROCKY MOUNT    CLEAR     45  10  24 W6        30.30R
ROANOKE RAPIDS NOT AVBL
FAYETTEVILLE   CLEAR     50   5  16 W7        30.30S
HOFFMAN        CLEAR     50  10  19 SW7       30.31S

.........WESTERN NC.........

CITY           SKY/WX    TMP DP  RH WIND       PRES   REMARKS
CHARLOTTE      MOCLDY    49   8  19 SW8       30.29S
GREENSBORO     MOCLDY    47   3  16 W7        30.25F
HICKORY        NOT AVBL
BOONE          NOT AVBL
ASHEVILLE      NOT AVBL

.....................REST OF SOUTH CAROLINA.....................

.........EASTERN SC.........

CITY           SKY/WX    TMP DP  RH WIND       PRES   REMARKS
CHARLESTON     PTCLDY    50  24  36 S5        30.34S
BEAUFORT MCAS  CLEAR     52  28  39 S8        30.35R
HILTON HEAD    CLEAR     48  27  43 CALM      30.37S

.........CENTRAL SC.........

CITY           SKY/WX    TMP DP  RH WIND       PRES   REMARKS
COLUMBIA       PTCLDY    54  14  20 CALM      30.32R
ORANGEBURG     CLEAR     53  11  18 CALM      30.32F
SUMTER SHAW    CLEAR     53   9  17 CALM      30.30F

.........WESTERN SC.........

CITY           SKY/WX    TMP DP  RH WIND       PRES   REMARKS
GREENVILLE     NOT AVBL
ROCK HILL      CLEAR     48  10  21 SW7       30.29F
ANDERSON       CLOUDY    52  16  24 CALM      30.29S
CLEMSON        NOT AVBL
GREENWOOD      PTCLDY    53  14  21 SW3       30.31F


...................COASTAL AND OFFSHORE REPORTS..................

................LOCAL PIERS AND NC RESERVE................


STATION/POSITION TIME  SKY/WX   TEMP    WIND        PRES    VSBY
                                AIR SEA DIR/SP/G
                 (UTC)          (F)     (DEG/KT/KT) (MB)    (MI)
JOHNY MRCER PIER 2200            45 53  160/  8/ 10 1026.0S
NC RESRV MASNBRO 2100            49     350/  2     1027.0S
OCEAN CREST PIER 2200            45 53  160/  7/  9 1026.3S
SPRINGMAID  PIER 2200            46 49  160/  7/  7 1027.0F


................COASTAL AND OFFSHORE BUOYS................


STATION/POSITION TIME  SKY/WX   TEMP    WIND        PRES    VSBY
                                AIR SEA DIR/SP/G
                 (UTC)          (F)     (DEG/KT/KT) (MB)    (MI)
DIMNDSHOAL 41025 2200            40 70  310/ 16/ 19 1025.7S
WVE H/P(F/S)=  4/ 8 WND WVE H/P(F/S)=  3/ 7 SWL H/P/D(F/S/D)=  3/ 20/ 8

CAPE LOOKOUT     2100            42     220/  4/  6 1026.5S
ONSLOW BAY 41036 NOT AVBL
5 WRITEBCH 41038 2100            44 52  180/  4/  6 1026.8F
MASONBORO  41110 2200               51                N/A
WVE H/P(F/S)=  2/11 WND WVE H/P(F/S)=  2/ 9 SWL H/P/D(F/S/D)=  2/100/11

WILM HARBR 41108 2200               53                N/A
WVE H/P(F/S)=  2/11 WND WVE H/P(F/S)=  2/10

27WRITEBCH 41037 NOT AVBL
FRYING PAN 41013 2200            44 64  290/  4/  6 1028.3R
WVE H/P(F/S)=  4/10 WND WVE H/P(F/S)=  2/ 4 SWL H/P/D(F/S/D)=  3/ 70/10

SUNST NRSH 41024 2100            51     310/  6/  6   N/A
CAPRS NRSH 41029 2100            48     170/  4/  6   N/A
EDISTO     41004 2200            49 67   50/ 10/ 14 1027.1F
WVE H/P(F/S)=  4/ 7 WND WVE H/P(F/S)=  2/ 4 SWL H/P/D(F/S/D)=  3/ 7



..........OFFSHORE BUOYS BEYOND 100 NM OFFSHORE...........
.....IN A TRIANGLE---HAT TO BERMUDA TO BAHAMAS TO HAT.....


STATION/POSITION TIME  SKY/WX   TEMP    WIND        PRES    VSBY
                                AIR SEA DIR/SP/G
                 (UTC)          (F)     (DEG/KT/KT) (MB)    (MI)
150E HAT   41001 NOT AVBL
W BERMUDA  41048 2113            56 70  300/ 27/ 39 1018.2R
WVE H/P(F/S)= 16/11 WND WVE H/P(F/S)= 10/ 7

ATLANTIC S 41049 2134            70 74  300/ 19/ 25 1015.0R
WVE H/P(F/S)=  9/ 8 WND WVE H/P(F/S)=  7/ 8 SWL H/P/D(F/S/D)=  5/ 9

E BAHAMAS  41046 2144            73 78   10/ 19/ 23 1017.7R
WVE H/P(F/S)=  5/10 WND WVE H/P(F/S)=  3/ 4 SWL H/P/D(F/S/D)=  5/ 80/10

NE BAHAMAS 41047 2130            65 74  340/ 17/ 23 1021.8R
WVE H/P(F/S)= 10/10 WND WVE H/P(F/S)=  7/ 6 SWL H/P/D(F/S/D)=  7/340/10

120E CANVRL41010 2200            62 73   50/ 10/ 16 1025.5R
WVE H/P(F/S)=  6/ 8 WND WVE H/P(F/S)=  2/ 4 SWL H/P/D(F/S/D)=  7/360/ 8


END


USA.gov is the U.S. government's official web portal to all federal, state and local government web resources and services.